Location: Unspecified
(32.5099°N, 80.0190°W)
Time: 01:53:29
(UTC-05:00)

CZ-3 Stage 3 - Visible Passes

Search period start: 13 February 2016 00:00
Search period end: 23 February 2016 00:00
Orbit: 369 x 34840 km, 30.4° (Epoch: 11 February)

Date Brightness Start Highest point End Pass type
(mag) Time Alt. Az. Time Alt. Az. Time Alt. Az.
14 Feb 9.3 22:07:05 10° WSW 22:48:15 14° SW 00:06:20 10° SW visible
15 Feb 7.7 17:57:19 10° W 18:18:59 41° SSW 03:29:46 10° SSE visible
17 Feb 9.4 22:03:52 10° WSW 22:41:44 13° SW 23:47:52 10° SW visible
18 Feb 7.6 17:49:35 10° W 18:11:34 39° SSW 03:23:42 10° SSE visible
20 Feb 9.4 22:01:47 10° WSW 22:35:11 12° SW 23:28:14 10° SW visible
21 Feb 7.6 17:41:44 10° W 18:04:02 38° SSW 03:17:12 10° SSE visible
